To NAV CANADA Home Page Login to a new session Search on AWWS site Disclaimer Vers la page française équivalente Tips FAQ What's new on the site To the Forecasts and Observations / NOTAM section To "File a Flight Plan" website Publications and other links Update of the User's profile FIC Telephone Numbers My Weather Data Folder Route Weather Data Regional Weather Data Local Weather Data To the Forecasts and Observations / NOTAM section
Request Generated 09/16/2021 at 16:26:11 UTC . Weather information available at that time is displayed.


Go to a specific product

Save this request

NOTAM

NOTAM


SIGMET
To the Product Selector

SIGMETS GFACN32

GFACN32 - No SIGMET bulletins in effect



AIRMET
To the Product Selector

AIRMETS GFACN32

GFACN32 - No AIRMET bulletins in effect



PIREP
To the Product Selector

FIR_WINNIPEG (WG)


UACN10 CYXU 161334
WG
UA /OV CYQT /TM 1332 /FLDURD /TP MU2 /TB MDT /RM ON FNL RWY 25


METAR/TAF
To the Product Selector

REGINA INTL/SK    

METAR CYQR 161600Z 27015G23KT 15SM FEW160 SCT250 12/00 A2974 RMK AC1CI2 SLP085 DENSITY ALT 2200FT=
METAR CYQR 161500Z 27013KT 15SM FEW140 SCT250 09/01 A2974 RMK AC1CI3 SLP085 DENSITY ALT 1900FT=
METAR CYQR 161400Z 26010G15KT 15SM FEW140 BKN250 08/02 A2973 RMK AC2CI3 SLP083=

TAF CYQR 161138Z 1612/1712 25008KT P6SM BKN140
BECMG 1617/1619 29020G30KT
FM162100 29022G32KT P6SM BKN060
FM170600 29015G25KT P6SM SCT120
RMK NXT FCST BY 161800Z=

MOOSE JAW/AIR VICE MARSHAL C.M. MCEWEN/SK    

METAR CYMJ 161600Z 27019G28KT 15SM FEW045 FEW120 FEW250 12/M00 A2975 RMK CU1AC1CI2 TR CU SLP085=
METAR CYMJ 161500Z 26018G24KT 15SM FEW120 SCT250 11/M00 A2975 RMK AC1CI2 SLP084=
METAR CYMJ 161400Z 26009G15KT 15SM SCT120 BKN250 09/02 A2975 RMK AC3CI3 SLP082=

TAF CYMJ 161130Z 1612/1624 24008KT P6SM BKN120 OVC250
FM161300 26010KT P6SM SCT250
BECMG 1615/1617 28018G28KT
FM162200 28018G28KT P6SM BKN050
RMK NXT FCST BY 161800Z=


RADAR PCPN RATE
To the Product Selector
Pacific Canada      Western Canada     

SATELLITE VISIBLE
To the Product Selector
West Canada      

SATELLITE INFRARED
To the Product Selector
West Canada     

GRAPHICAL FA CLOUDS & WEATHER FORECASTS
To the Product Selector
Graphical FA gfacn32      

GRAPHICAL FA ICING, TURBULENCE & FREEZING LEVEL FORECASTS
To the Product Selector
Graphical FA gfacn32      

FDTEXT Low Level FD. Temperatures are not forecast for the 3,000-foot level.
To the Product Selector
STN YQR - REGINA. SASK for use 3000 6000 9000 12000 18000
FDCN01 CWAO FCST BASED ON 161200 DATA VALID 161800 17-21 2836+01 2838-05 2736-11 2567-22
FDCN02 CWAO FCST BASED ON 161200 DATA VALID 170000 21-06 2933+00 2943-07 3041-12 2836-24
FDCN03 CWAO FCST BASED ON 161200 DATA VALID 171200 06-17 3132+01 3135-02 3035-06 2942-22



Your time UTC time
Weather data provided by Environment Canada and NAV CANADA